This demonstration page uses our WeatherBlox Daily Observations layout. Learn more.

Left ArrowRight Arrow

38.20091, -84.87328

Hourly Observations for January 4, 2015

Temp ( °F °C ) Dew Point ( °F °C ) Humidity (%) Winds ( mph kmh ) Pressure ( in mb ) Visibility ( mi km ) Precip ( " mm )
12:17 am 00:17 Cloudy 59 15 56 13.3 90 90 SSW 13 20 29.80 1009 10 16 0.00 0.00
12:53 am 00:53 Cloudy 59 15 56 13.3 90 90 S 10 17 29.78 1008 10 16 0.00 0.00
1:06 am 01:06 Mostly Cloudy 58 14.4 56 13.3 93 93 S 8 13 29.77 1008 10 16 0.00 0.00
1:53 am 01:53 Cloudy 58 14.4 55 12.8 90 90 S 8 13 29.76 1008 10 16 0.00 0.00
2:53 am 02:53 Cloudy 58 14.4 55 12.8 90 90 S 8 13 29.75 1007 10 16 0.00 0.03
3:44 am 03:44 Cloudy 59 15 56 13.3 90 90 SSW 15 24 29.74 1007 7 11 0.00 0.00
3:53 am 03:53 Cloudy with Light Rain 59 15 57 13.9 93 93 SSW 16 26 29.74 1007 4 6 0.01 0.25
4:50 am 04:50 Cloudy with Rain 59 15 57 14 94 94 W 17 28 29.74 1007 3 4 0.08 2.03
4:53 am 04:53 Cloudy with Heavy Rain 58 14.4 56 13.3 93 93 W 17 28 29.74 1007 2 3 0.09 2.29
5:02 am 05:02 Cloudy with Rain 56 13.3 54 12.2 93 93 W 12 19 29.77 1008 3 5 0.02 0.51
5:09 am 05:09 Cloudy with Light Rain 56 13.3 53 11.7 90 90 W 16 26 29.77 1008 3 5 0.02 0.51
5:17 am 05:17 Cloudy with Light Rain 56 13.3 53 11.7 90 90 W 15 24 29.77 1008 6 10 0.03 0.76
5:25 am 05:25 Cloudy 56 13.3 52 11.1 87 87 WSW 14 22 29.77 1008 10 16 0.03 0.76
5:53 am 05:53 Cloudy 55 12.8 51 10.6 87 87 WSW 18 30 29.76 1008 9 14 0.03 0.76
6:53 am 06:53 Cloudy 53 11.7 50 10 89 89 WSW 14 22 29.80 1009 8 13 0.00 0.00
7:02 am 07:02 Mostly Cloudy 53 11.7 49 9.4 86 86 WSW 12 19 29.80 1009 10 16 0.00 0.00
7:40 am 07:40 Mostly Cloudy 52 11.1 47 8.3 83 83 WSW 14 22 29.83 1010 10 16 0.00 0.00
7:50 am 07:50 Partly Cloudy 52 11 46 8 82 82 WSW 14 22 29.85 1011 10 16 0.00 0.00
7:53 am 07:53 Mostly Cloudy 51 10.6 47 8.3 86 86 WSW 12 19 29.84 1011 10 16 0.00 0.00
8:01 am 08:01 Partly Cloudy 51 10.6 46 7.8 83 83 WSW 13 20 29.85 1011 10 16 0.00 0.00
8:23 am 08:23 Mostly Cloudy 50 10 46 7.8 86 86 VRB 7 11 29.88 1012 10 16 0.00 0.00
8:53 am 08:53 Cloudy 49 9.4 44 6.7 83 83 W 14 22 29.90 1013 10 16 0.00 0.00
9:53 am 09:53 Cloudy 48 8.9 43 6.1 83 83 W 14 22 29.93 1014 10 16 0.00 0.00
10:53 am 10:53 Cloudy 46 7.8 38 3.3 73 73 W 13 20 29.96 1015 10 16 0.00 0.00
11:53 am 11:53 Cloudy 45 7.2 37 2.8 74 74 W 12 19 29.97 1015 10 16 0.00 0.00
12:03 pm 12:03 Cloudy 45 7.2 37 2.8 74 74 WSW 8 13 30.00 1016 10 16 0.00 0.00
12:35 pm 12:35 Cloudy 45 7.2 36 2.2 71 71 W 8 13 30.00 1016 10 16 0.00 0.00
12:53 pm 12:53 Cloudy 44 6.7 36 2.2 73 73 W 9 15 29.98 1015 10 16 0.00 0.00
1:53 pm 13:53 Cloudy 42 5.6 35 1.7 76 76 NW 10 17 30.00 1016 10 16 0.00 0.03
2:37 pm 14:37 Cloudy 41 5 33 0.6 73 73 WNW 9 15 30.06 1018 10 16 0.00 0.03
2:53 pm 14:53 Cloudy 41 5 32 0 70 70 WNW 10 17 30.04 1017 10 16 0.00 0.03
3:53 pm 15:53 Cloudy 40 4.4 29 -1.7 65 65 W 12 19 30.10 1019 10 16 0.00 0.00
4:53 pm 16:53 Cloudy 39 3.9 28 -2.2 65 65 W 9 15 30.16 1021 10 16 0.00 0.00
5:53 pm 17:53 Cloudy 38 3.3 27 -2.8 65 65 W 13 20 30.20 1023 10 16 0.00 0.00
6:10 pm 18:10 Cloudy 38 3.3 27 -2.8 65 65 WNW 8 13 30.24 1024 10 16 0.00 0.00
6:51 pm 18:51 Cloudy 36 2 27 -3 70 70 WNW 12 19 30.30 1026 10 16 0.00 0.00
6:53 pm 18:53 Cloudy 36 2.2 27 -2.8 70 70 WNW 10 17 30.24 1024 10 16 0.00 0.00
7:53 pm 19:53 Cloudy 35 1.7 27 -2.8 72 72 W 10 17 30.26 1025 10 16 0.00 0.00
8:15 pm 20:15 Cloudy 34 1.1 28 -2.2 79 79 NW 9 15 30.33 1027 9 14 0.00 0.00
8:53 pm 20:53 Cloudy 32 0 27 -2.8 82 82 NW 18 30 30.32 1027 10 16 0.00 0.00
9:04 pm 21:04 Cloudy 31 -0.6 25 -3.9 79 79 WNW 18 30 30.39 1029 10 16 0.00 0.00
9:46 pm 21:46 Cloudy 29 -1.7 22 -5.6 75 75 WNW 9 15 30.42 1030 10 16 0.00 0.00
9:53 pm 21:53 Cloudy 29 -1.7 22 -5.6 75 75 WNW 15 24 30.37 1029 10 16 0.00 0.00
10:53 pm 22:53 Cloudy 26 -3.3 19 -7.2 75 75 WNW 10 17 30.42 1030 10 16 0.00 0.00
11:53 pm 23:53 Cloudy 25 -3.9 17 -8.3 72 72 W 10 17 30.43 1031 10 16 0.00 0.00

Powered by AerisWeather